Regional Weather Roundup
Issued by NWS

Home | Current Version | Previous Version | Text Only | Print | Product List | Glossary On
Versions: 1 2 3 4 5 6 7 8 9 10 11 12 13 14 15 16 17 18 19 20 21 22 23 24 25 26 27 28 29 30 31 32 33 34 35 36 37 38 39 40 41 42 43 44 45 46 47 48 49 50
000
ASUS43 KMKX 220211
RWRWI

WISCONSIN REGIONAL WEATHER ROUNDUP
NATIONAL WEATHER SERVICE MILWAUKEE/SULLIVAN WI
800 PM CST FRI NOV 21 2014

NOTE: "FAIR" INDICATES FEW OR NO CLOUDS BELOW 12,000 FEET WITH NO
SIGNIFICANT WEATHER AND/OR OBSTRUCTIONS TO VISIBILITY.

WIZ001-002-006>008-014>016-023>028-220300-
NORTHWEST WISCONSIN

CITY           SKY/WX    TMP DP  RH WIND       PRES   REMARKS
SUPERIOR ARPT  PTCLDY    28  19  69 SW16G24   29.84F WCI  16
ASHLAND        MOCLDY    26  13  57 S17G30    29.86F WCI  13
HAYWARD        PTCLDY    25  14  63 S16       29.91F WCI  12
SIREN          PTCLDY    28  19  70 S10G17    29.90F WCI  18
CUMBERLAND     PTCLDY    27  18  69 S10       29.92F WCI  17
RICE LAKE      PTCLDY    24  15  67 S9        29.96F WCI  15
CHETEK         PTCLDY    24  13  63 SE6       29.96F WCI  17
LADYSMITH      PTCLDY    24  11  56 S7        29.97F WCI  16
EAU CLAIRE     MOCLDY    27  15  61 S9        29.98F WCI  18
MENOMONIE      MOCLDY    29  18  65 S8        29.98F WCI  21
NEW RICHMOND   CLOUDY    28  20  72 S16       29.94F WCI  16
OSCEOLA        CLOUDY    28  21  75 S10       29.96F WCI  18
$$

WIZ003>005-009-010-017-018-220300-
NORTH CENTRAL WISCONSIN

CITY           SKY/WX    TMP DP  RH WIND       PRES   REMARKS
MANITOWISH WTR FAIR      23   9  56 S12G17    29.90F WCI  11
ARBOR VITAE    PTCLDY    23  10  56 S15       29.93F WCI  10
WOODRUFF       PTCLDY    23  10  56 S15       29.93F WCI  10
RHINELANDER    FAIR      22   7  52 SW14      29.97F WCI   9
EAGLE RIVER    MOCLDY    23   7  50 S7        29.94F WCI  14
LAND O LAKES   MOCLDY    23   9  54 SW13G21   29.91F WCI  11
PHILLIPS       PTCLDY    22   9  56 S12       29.94F WCI  11
TOMAHAWK       PTCLDY    22   9  56 S6        29.98F WCI  15
MEDFORD        PTCLDY    23  11  59 S14       29.98F WCI  11
MERRILL        MOCLDY    25  10  52 S10G16    30.01F WCI  15
$$

WIZ029-030-035-036-043>047-220300-
CENTRAL WISCONSIN

CITY           SKY/WX    TMP DP  RH WIND       PRES   REMARKS
WAUSAU         MOCLDY    26  10  50 S14       30.02F WCI  14
MOSINEE        CLEAR     25  10  54 S16       30.05F WCI  12
MARSHFIELD     MOCLDY    26  10  50 S14       30.02F WCI  14
STEVENS POINT  MOCLDY    24   9  53 S10       30.07F WCI  13
WAUPACA        MOCLDY    28  10  46 S10       30.12F WCI  19
WAUTOMA        CLOUDY    27   9  46 S9        30.12F WCI  18
WISC RAPIDS    CLOUDY    27   7  42 S12       30.08F WCI  17
CAMP DOUGLAS   CLOUDY    29  11  48 S9        30.08F WCI  20
$$

WIZ011>013-019>022-031-037>040-048>050-220300-
NORTHEAST WISCONSIN

CITY           SKY/WX    TMP DP  RH WIND       PRES   REMARKS
ANTIGO         PTCLDY    21   9  59 S15       30.02F WCI   8
SHAWANO        PTCLDY    28  11  48 S6        30.10F WCI  22
OCONTO         MOCLDY    28   9  45 S12G17    30.11F WCI  18
STURGEON BAY   MOCLDY    28   9  43 S17G24    30.11F WCI  16
GREEN BAY      PTCLDY    29  10  45 S16G22    30.13F WCI  17
MANITOWOC      PTCLDY    30   7  37 S18G24    30.17F WCI  18
APPLETON       MOCLDY    27  10  50 S13       30.13F WCI  16
CLINTONVILLE   PTCLDY    28  12  50 S9        30.11F WCI  20
OSHKOSH        PTCLDY    27  10  49 S21       30.13F WCI  13
$$

WIZ032>034-041-042-053>061-220300-
SOUTHWEST WISCONSIN

CITY           SKY/WX    TMP DP  RH WIND       PRES   REMARKS
LA CROSSE      CLOUDY    32  16  51 S16       30.07F WCI  21
SPARTA         CLOUDY    30  14  50 S8        30.08F WCI  22
VIROQUA        CLOUDY    29  13  50 S13G20    30.07F WCI  19
BOSCOBEL       CLOUDY    33  10  38 SW10      30.14F WCI  25
PRAIRIE DU CHI CLOUDY    32  10  40 SE3       30.13F
PLATTEVILLE    CLOUDY    31  13  47 S12       30.15F WCI  22
$$

WIZ056-057-062-063-064-067-068-220300-
SOUTH CENTRAL WISCONSIN

CITY           SKY/WX    TMP DP  RH WIND       PRES   REMARKS
REEDSBURG      CLOUDY    30   9  41 S13G20    30.12F WCI  20
BARABOO/DELLS  CLOUDY    30   7  38 S13G21    30.11F WCI  20
LONE ROCK      CLOUDY    35   9  33 VRB5      30.15F WCI  31
MINERAL POINT  CLOUDY    30  12  47 S12       30.13F WCI  21
MADISON        CLOUDY    30   9  41 S12       30.15F WCI  20
MIDDLETON      CLOUDY    31   7  36 S7        30.15F WCI  24
WATERTOWN      MOCLDY    28   9  45 S12       30.17F WCI  17
MONROE         CLOUDY    30  12  47 S15       30.15F WCI  19
JANESVILLE     PTCLDY    30   5  34 S9        30.20F WCI  22
$$

WIZ051-052-058>065-066-070>072-220300-
SOUTHEAST WISCONSIN

CITY           SKY/WX    TMP DP  RH WIND       PRES   REMARKS
MILWAUKEE      MOCLDY    29   4  34 S13       30.22F WCI  19
WAUKESHA       CLEAR     27   3  36 S10       30.20F WCI  17
MILWAUKEE/TIMM CLEAR     28   1  31 S10G16    30.21F WCI  19
RACINE         CLEAR     30   5  34 S10       30.25F WCI  21
BURLINGTON     PTCLDY    26   8  47 S9        30.21F WCI  16
KENOSHA        PTCLDY    29   7  39 S12       30.23F WCI  19
FOND DU LAC    PTCLDY    28   9  44 S20G26    30.14F WCI  15
SHEBOYGAN      PTCLDY    27   6  41 S14       30.18F WCI  16
WEST BEND      FAIR      28   3  34 S8        30.18F WCI  20
JUNEAU         MOCLDY    26  10  49 S14G20    30.17F WCI  15
$$

LSZ147-162-220300-
LAKE SUPERIOR

STATION/POSITION TIME  TEMP    WIND        PRES    WAVE
                       AIR SEA DIR/SP/G            HT/PER
                 (UTC) (F)     (DEG/KT/KT) (MB)    (FT/S)
DEVILS ISLAND    0200   32     210/ 22/ 28 1010.3F
PORT WING        0102   28     190/ 17/ 25 1011.2F
SAXON HARBOR     0200   31     190/  9/ 21 1010.5F
$$

LMZ867-665-643>646-220300-
LAKE MICHIGAN

STATION/POSITION TIME  TEMP    WIND        PRES    WAVE
                       AIR SEA DIR/SP/G            HT/PER
                 (UTC) (F)     (DEG/KT/KT) (MB)    (FT/S)
CHAMBERS ISLAND  0100   30     170/ 10/ 20 1020.0F
N MID LAKE BUOY  0150   36 42  220/ 29/ 35 1019.8F  10/ 7
NORTHPORT PIER   0112   31     180/  8/ 20 1019.6F
SISTER BAY       0143          200/ 20/ 23   N/A
ALGOMA LAKESHORE 0043          230/ 23/ 28   N/A
KEWAUNEE LAKESHO 0100   30     200/ 18/ 23 1020.6F
SHEBOYGAN LAKESH 0200   32 35  200/ 22/ 24 1023.0F
PORT WASHINGTON  0140   31     210/ 11/ 17 1023.7F
ATWATER BUOY     0100   30      CALM  /  2 1025.4F
MILWAUKEE LAKESH 0100   30     190/ 12/ 14   N/A
S MID LAKE BUOY  0150   35 43  180/ 23/ 29 1025.6F   5/ 5
KENOSHA   LAKESH 0200   31     190/ 13/ 17 1024.0S
$$

TC  - TEMPERATURE IN CELSIUS
VSB - VISIBILITY IN STATUTE MILES
WCI - WIND CHILL INDEX
HX  - HEAT INDEX



USA.gov is the U.S. government's official web portal to all federal, state and local government web resources and services.